PWSweather.com
Personal Weather Stations
Station Observations
GEELONGWX1
Bell Post Hill, GeelongAU

Bell Post HillGeelongAU

Lat: -38.101, Lon: 144.326

Elevation: 204

Station Type: Davis Vantage Pro2

http://www.geelongweather.com

Latest ConditionsUpdated 9:30:00 AM GMT+10:10 Saturday, May 23, 2015
Currently Today's Max Today's Min Today's Average
Temperature 52.1°F11.2°C 52.1°F11.2°C 50.1°F10.1°C 50.6°F10.3°C
Dew Point 45.8°F7.7°C 45.8°F7.7°C 43.0°F6.1°C 43.7°F6.5°C
Winds Calm Calm 2.3 mph E3.7 kmh E - 0.1 mph 0.2 kmh
Wind Gusts -- 5.8 mph9.3 kmh - -
Humidity 79% 79% 75% 77%
Pressure 30.61 in1036.6 mb 30.61 in1036.6 mb 30.55 in1034.5 mb -
Hour Temp Dew Point Humidity Winds Wind Gusts Pressure Precip Precip Rate Daily Precip Total
09:30 AM 52.1°F11.2°C 45.8°F7.7°C 79% Calm Calm -- 30.61 in1036.6 mb - 0.00 in0.0 mm 0.00 in0.0 mm
09:20 AM 51.7°F10.9°C 45.4°F7.4°C 79% Calm Calm -- 30.61 in1036.6 mb - 0.00 in0.0 mm 0.00 in0.0 mm
09:10 AM 51.5°F10.8°C 45.2°F7.3°C 79% Calm Calm 3.5 mph5.6 kmh 30.61 in1036.6 mb - 0.00 in0.0 mm 0.00 in0.0 mm
09:00 AM 51.3°F10.7°C 45.0°F7.2°C 79% 1.2 mph E1.9 kmh E 5.8 mph9.3 kmh 30.60 in1036.2 mb - 0.00 in0.0 mm 0.00 in0.0 mm
08:50 AM 51.0°F10.6°C 44.7°F7.1°C 79% Calm Calm -- 30.60 in1036.2 mb - 0.00 in0.0 mm 0.00 in0.0 mm
08:40 AM 50.7°F10.4°C 44.5°F6.9°C 79% Calm Calm -- 30.60 in1036.2 mb - 0.00 in0.0 mm 0.00 in0.0 mm
08:30 AM 50.5°F10.3°C 44.2°F6.8°C 79% Calm Calm -- 30.60 in1036.2 mb - 0.00 in0.0 mm 0.00 in0.0 mm
08:20 AM 50.3°F10.2°C 44.1°F6.7°C 79% Calm Calm -- 30.60 in1036.2 mb - 0.00 in0.0 mm 0.00 in0.0 mm
08:10 AM 50.2°F10.1°C 44.0°F6.7°C 79% Calm Calm -- 30.60 in1036.2 mb - 0.00 in0.0 mm 0.00 in0.0 mm
08:00 AM 50.2°F10.1°C 43.9°F6.6°C 79% Calm Calm -- 30.59 in1035.9 mb - 0.00 in0.0 mm 0.00 in0.0 mm
07:50 AM 50.1°F10.1°C 43.5°F6.4°C 78% Calm Calm -- 30.59 in1035.9 mb - 0.00 in0.0 mm 0.00 in0.0 mm
07:40 AM 50.1°F10.1°C 43.6°F6.4°C 78% Calm Calm -- 30.59 in1035.9 mb - 0.00 in0.0 mm 0.00 in0.0 mm
07:30 AM 50.1°F10.1°C 43.5°F6.4°C 78% Calm Calm -- 30.59 in1035.9 mb - 0.00 in0.0 mm 0.00 in0.0 mm
07:20 AM 50.1°F10.1°C 43.5°F6.4°C 78% Calm Calm -- 30.59 in1035.9 mb - 0.00 in0.0 mm 0.00 in0.0 mm
07:10 AM 50.2°F10.1°C 43.6°F6.4°C 78% Calm Calm -- 30.58 in1035.6 mb - 0.00 in0.0 mm 0.00 in0.0 mm
07:00 AM 50.2°F10.1°C 43.6°F6.4°C 78% Calm Calm -- 30.58 in1035.6 mb - 0.00 in0.0 mm 0.00 in0.0 mm
06:50 AM 50.1°F10.1°C 43.5°F6.4°C 78% Calm Calm -- 30.58 in1035.6 mb - 0.00 in0.0 mm 0.00 in0.0 mm
06:40 AM 50.1°F10.1°C 43.5°F6.4°C 78% Calm Calm -- 30.58 in1035.6 mb - 0.00 in0.0 mm 0.00 in0.0 mm
06:30 AM 50.1°F10.1°C 43.2°F6.2°C 77% Calm Calm -- 30.57 in1035.2 mb - 0.00 in0.0 mm 0.00 in0.0 mm
06:20 AM 50.1°F10.1°C 43.2°F6.2°C 77% Calm Calm -- 30.57 in1035.2 mb - 0.00 in0.0 mm 0.00 in0.0 mm
06:10 AM 50.1°F10.1°C 43.2°F6.2°C 77% Calm Calm -- 30.57 in1035.2 mb - 0.00 in0.0 mm 0.00 in0.0 mm
06:00 AM 50.1°F10.1°C 43.2°F6.2°C 77% Calm Calm -- 30.57 in1035.2 mb - 0.00 in0.0 mm 0.00 in0.0 mm
05:50 AM 50.1°F10.1°C 43.2°F6.2°C 77% Calm Calm -- 30.57 in1035.2 mb - 0.00 in0.0 mm 0.00 in0.0 mm
05:40 AM 50.1°F10.1°C 43.2°F6.2°C 77% Calm Calm -- 30.57 in1035.2 mb - 0.00 in0.0 mm 0.00 in0.0 mm
05:30 AM 50.1°F10.1°C 43.2°F6.2°C 77% Calm Calm -- 30.57 in1035.2 mb - 0.00 in0.0 mm 0.00 in0.0 mm
05:20 AM 50.1°F10.1°C 43.2°F6.2°C 77% Calm Calm -- 30.57 in1035.2 mb - 0.00 in0.0 mm 0.00 in0.0 mm
05:10 AM 50.1°F10.1°C 43.2°F6.2°C 77% 1.2 mph SSE1.9 kmh SSE 4.6 mph7.4 kmh 30.57 in1035.2 mb - 0.00 in0.0 mm 0.00 in0.0 mm
05:00 AM 50.1°F10.1°C 43.2°F6.2°C 77% Calm Calm -- 30.56 in1034.9 mb - 0.00 in0.0 mm 0.00 in0.0 mm
04:50 AM 50.1°F10.1°C 43.2°F6.2°C 77% Calm Calm -- 30.56 in1034.9 mb - 0.00 in0.0 mm 0.00 in0.0 mm
04:40 AM 50.2°F10.1°C 43.2°F6.2°C 77% Calm Calm -- 30.56 in1034.9 mb - 0.00 in0.0 mm 0.00 in0.0 mm
04:30 AM 50.2°F10.1°C 43.3°F6.3°C 77% Calm Calm -- 30.56 in1034.9 mb - 0.00 in0.0 mm 0.00 in0.0 mm
04:20 AM 50.2°F10.1°C 43.3°F6.3°C 77% Calm Calm -- 30.55 in1034.5 mb - 0.00 in0.0 mm 0.00 in0.0 mm
04:10 AM 50.3°F10.2°C 43.0°F6.1°C 76% Calm Calm -- 30.55 in1034.5 mb - 0.00 in0.0 mm 0.00 in0.0 mm
04:00 AM 50.3°F10.2°C 43.0°F6.1°C 76% Calm Calm -- 30.55 in1034.5 mb - 0.00 in0.0 mm 0.00 in0.0 mm
03:50 AM 50.4°F10.2°C 43.1°F6.2°C 76% Calm Calm -- 30.55 in1034.5 mb - 0.00 in0.0 mm 0.00 in0.0 mm
03:40 AM 50.5°F10.3°C 43.2°F6.2°C 76% Calm Calm -- 30.55 in1034.5 mb - 0.00 in0.0 mm 0.00 in0.0 mm
03:30 AM 50.5°F10.3°C 43.2°F6.2°C 76% Calm Calm -- 30.55 in1034.5 mb - 0.00 in0.0 mm 0.00 in0.0 mm
03:20 AM 50.4°F10.2°C 43.2°F6.2°C 76% Calm Calm -- 30.55 in1034.5 mb - 0.00 in0.0 mm 0.00 in0.0 mm
03:10 AM 50.5°F10.3°C 43.2°F6.2°C 76% Calm Calm -- 30.55 in1034.5 mb - 0.00 in0.0 mm 0.00 in0.0 mm
03:00 AM 50.5°F10.3°C 43.2°F6.2°C 76% Calm Calm -- 30.56 in1034.9 mb - 0.00 in0.0 mm 0.00 in0.0 mm
02:50 AM 50.5°F10.3°C 43.2°F6.2°C 76% Calm Calm -- 30.56 in1034.9 mb - 0.00 in0.0 mm 0.00 in0.0 mm
02:40 AM 50.5°F10.3°C 43.2°F6.2°C 76% Calm Calm -- 30.56 in1034.9 mb - 0.00 in0.0 mm 0.00 in0.0 mm
02:30 AM 50.5°F10.3°C 43.2°F6.2°C 76% Calm Calm -- 30.57 in1035.2 mb - 0.00 in0.0 mm 0.00 in0.0 mm
02:20 AM 50.5°F10.3°C 43.2°F6.2°C 76% Calm Calm -- 30.57 in1035.2 mb - 0.00 in0.0 mm 0.00 in0.0 mm
02:10 AM 50.6°F10.3°C 43.3°F6.3°C 76% Calm Calm -- 30.57 in1035.2 mb - 0.00 in0.0 mm 0.00 in0.0 mm
02:00 AM 50.7°F10.4°C 43.4°F6.3°C 76% Calm Calm -- 30.57 in1035.2 mb - 0.00 in0.0 mm 0.00 in0.0 mm
01:50 AM 50.8°F10.4°C 43.5°F6.4°C 76% Calm Calm -- 30.56 in1034.9 mb - 0.00 in0.0 mm 0.00 in0.0 mm
01:40 AM 50.9°F10.5°C 43.3°F6.3°C 75% Calm Calm -- 30.56 in1034.9 mb - 0.00 in0.0 mm 0.00 in0.0 mm
01:30 AM 51.1°F10.6°C 43.8°F6.6°C 76% Calm Calm -- 30.56 in1034.9 mb - 0.00 in0.0 mm 0.00 in0.0 mm
01:20 AM 51.2°F10.7°C 43.9°F6.6°C 76% Calm Calm -- 30.56 in1034.9 mb - 0.00 in0.0 mm 0.00 in0.0 mm
01:10 AM 51.3°F10.7°C 44.0°F6.7°C 76% Calm Calm -- 30.56 in1034.9 mb - 0.00 in0.0 mm 0.00 in0.0 mm
01:00 AM 51.3°F10.7°C 44.0°F6.7°C 76% Calm Calm -- 30.57 in1035.2 mb - 0.00 in0.0 mm 0.00 in0.0 mm
12:50 AM 51.4°F10.8°C 44.1°F6.7°C 76% Calm Calm -- 30.56 in1034.9 mb - 0.00 in0.0 mm 0.00 in0.0 mm
12:40 AM 51.4°F10.8°C 44.1°F6.7°C 76% Calm Calm -- 30.57 in1035.2 mb - 0.00 in0.0 mm 0.00 in0.0 mm
12:30 AM 51.4°F10.8°C 44.1°F6.7°C 76% 2.3 mph E3.7 kmh E 3.5 mph5.6 kmh 30.57 in1035.2 mb - 0.00 in0.0 mm 0.00 in0.0 mm
12:20 AM 51.4°F10.8°C 44.1°F6.7°C 76% Calm Calm -- 30.57 in1035.2 mb - 0.00 in0.0 mm 0.00 in0.0 mm
12:10 AM 51.5°F10.8°C 44.2°F6.8°C 76% 2.3 mph E3.7 kmh E 1.2 mph1.9 kmh 30.58 in1035.6 mb - 0.00 in0.0 mm 0.00 in0.0 mm
12:00 AM 51.6°F10.9°C 44.3°F6.8°C 76% 1.2 mph E1.9 kmh E 3.5 mph5.6 kmh 30.58 in1035.6 mb - 0.00 in0.0 mm 0.00 in0.0 mm